Terminal Aerodrome Forecast
Issued by NWS

Home | Current Version | Previous Version | Text Only | Print | Product List | Glossary On
Versions: 1 2 3 4 5 6 7 8 9 10 11 12 13 14 15 16 17 18
000
FTUS46 KSGX 201200 AAA
TAFONT
TAF AMD
KONT 201233Z 2013/2118 VRB03KT 6SM HZ SCT010
     FM201600 23005KT P6SM SKC
     FM202100 26010KT P6SM SKC
     FM210400 VRB04KT P6SM SCT018
     FM210700 VRB04KT P6SM BKN018
     FM211700 VRB05KT P6SM SCT025=

USA.gov is the U.S. government's official web portal to all federal, state and local government web resources and services.